GFSWCAN_sfc_temp_153.txt.gz
Temp
55 55 55 54 55 56 57 57 57 57 57 57 57 57 56 56 55 46 39 42 38 33 36 40 39 34 35 34 29 35 33 34 32 27 27 26 24 29 25 26 27 24 22 22 27 22 20 42 41 37 39 45 48 48
55 55 55 55 55 55 56 56 56 56 56 56 56 56 56 56 55 52 37 42 43 37 36 42 43 44 43 42 37 36 33 33 35 30 28 30 25 26 27 21 29 25 26 22 26 27 39 41 41 47 47 47 48 48
54 54 54 54 55 55 55 55 52 52 52 50 51 54 55 55 55 52 38 40 41 35 35 35 35 44 46 45 48 34 35 39 35 36 32 30 25 28 21 23 26 30 34 29 30 34 39 42 46 47 48 48 50 52
53 54 54 54 54 54 52 52 54 53 52 51 49 52 55 55 54 52 38 40 38 36 29 32 46 40 46 46 45 45 41 41 40 37 33 30 27 31 24 28 27 31 33 30 29 35 38 42 44 48 49 49 49 51
51 52 53 54 53 53 50 52 52 52 52 51 52 54 54 54 53 46 39 40 42 37 28 31 39 45 47 42 42 42 41 40 36 32 28 26 29 29 27 27 25 33 34 27 29 40 39 41 47 49 47 48 51 50
50 51 52 53 53 52 49 50 50 52 52 54 54 54 53 53 52 42 33 38 45 43 32 28 36 35 39 41 40 39 39 36 33 30 28 28 32 29 18 19 37 41 41 40 38 44 44 46 48 50 48 49 52 51
50 50 51 53 53 51 50 50 50 51 53 53 53 53 53 52 39 37 33 40 46 43 32 24 26 35 37 37 36 34 36 33 33 32 29 29 31 33 21 25 37 40 41 42 44 43 40 44 43 49 51 52 54 53
50 51 51 52 52 52 51 49 52 53 53 53 52 52 51 50 46 39 42 46 44 37 36 25 22 26 37 31 30 34 30 32 33 31 34 31 33 32 26 34 40 40 41 42 43 46 45 48 49 49 51 51 50 51
50 51 51 51 52 51 51 52 52 52 52 52 50 48 42 39 36 38 46 46 40 34 24 28 21 20 35 32 31 33 32 29 34 31 32 33 28 26 30 35 39 42 41 41 43 43 44 44 46 47 48 49 48 50
47 45 51 51 50 49 51 52 52 52 52 49 40 34 32 37 46 46 39 35 33 32 32 26 29 24 32 30 30 26 33 29 27 31 35 30 28 37 40 42 43 44 45 44 40 39 41 41 43 46 48 50 52 52
44 42 43 48 49 51 51 51 51 50 47 36 35 33 35 45 39 35 29 28 27 25 30 31 30 25 33 27 24 28 22 27 23 28 29 26 23 37 43 43 45 45 45 45 45 46 47 46 46 46 48 50 51 53
49 48 48 50 50 50 50 50 50 40 36 38 39 39 36 33 30 26 16 21 23 20 22 29 28 29 30 31 25 27 24 28 22 30 28 24 32 40 42 42 41 42 44 44 46 46 47 47 48 49 50 50 52 52
49 48 49 49 49 49 50 50 48 47 43 40 34 29 21 23 13 18 5 17 15 26 27 26 26 29 29 29 26 24 25 22 29 28 26 28 35 39 39 41 41 42 42 43 44 46 47 47 50 49 50 53 54 54
49 49 48 47 47 48 49 50 49 45 38 27 25 18 14 11 14 14 15 17 27 27 24 28 28 30 30 27 28 24 25 22 21 21 24 29 35 38 39 42 41 41 42 42 45 46 45 46 47 50 52 53 53 53
48 49 48 47 48 48 49 49 47 40 35 28 19 12 18 22 17 22 25 25 30 30 31 31 32 31 29 26 23 21 18 19 20 25 28 32 35 37 38 40 42 42 42 41 42 44 44 45 47 49 51 53 53 54
48 47 43 48 48 47 49 46 40 38 33 29 25 21 23 23 19 24 29 30 34 35 36 34 29 27 21 26 22 21 19 20 26 28 32 33 32 34 39 41 41 40 39 41 41 43 42 43 45 47 49 50 51 52
48 36 46 48 48 47 47 39 36 32 29 24 19 25 25 24 23 21 30 32 35 31 27 26 21 23 23 19 18 25 25 29 29 31 32 33 32 34 38 39 41 40 38 39 39 39 40 43 44 45 45 47 49 51
37 40 48 48 44 42 39 36 32 29 24 25 22 25 25 25 26 28 30 33 33 24 23 20 26 24 24 17 21 25 29 30 30 31 31 34 34 35 38 36 38 38 37 37 37 38 38 39 40 41 42 44 45 48
40 40 48 47 41 35 32 30 30 20 19 25 25 25 26 27 28 31 31 34 33 31 26 24 21 18 22 24 26 28 28 29 29 32 35 35 34 34 36 36 37 37 37 36 36 37 37 38 38 39 40 42 42 44
47 47 47 44 40 29 27 27 29 23 18 25 26 25 26 26 29 29 25 28 26 24 24 25 22 25 26 28 29 30 31 32 32 34 34 35 34 34 33 34 35 35 35 36 36 40 37 37 38 39 40 42 42 43
44 41 44 37 33 30 28 27 27 20 24 24 27 26 26 28 28 28 28 29 22 26 24 25 20 25 30 32 32 33 33 34 34 34 34 34 37 33 33 35 34 34 35 35 35 36 37 35 36 37 38 40 42 44
37 41 34 34 30 30 26 28 24 28 26 26 25 27 25 23 25 27 29 24 24 29 27 27 29 31 30 31 34 33 35 35 36 36 39 37 34 34 33 33 33 34 34 35 35 35 35 35 35 37 36 38 41 41
40 36 32 28 20 18 18 30 25 27 22 17 24 19 16 21 27 29 25 27 29 31 32 33 35 35 35 37 35 35 36 35 35 35 35 35 36 36 33 33 35 35 36 39 39 39 39 39 37 37 37 37 38 39
38 26 25 18 11 10 23 25 22 26 25 19 12 13 18 20 26 23 24 26 29 31 31 34 36 35 34 33 33 34 37 36 34 35 36 35 34 35 36 36 37 38 41 41 40 40 40 39 38 35 35 35 37 38
21 20 16 15 24 23 22 23 25 24 21 22 13 14 19 25 24 22 24 27 28 30 32 34 35 36 35 35 36 36 38 36 35 35 37 38 38 37 38 38 39 40 40 39 38 39 39 38 35 34 34 35 35 37
10 14 13 13 18 21 22 19 22 24 25 22 25 28 27 24 19 20 26 29 29 31 34 34 34 35 36 36 35 35 37 39 38 36 38 39 39 38 36 36 36 38 40 40 39 38 39 38 34 34 34 36 40 37
13 15 22 28 26 27 26 29 29 26 24 22 26 24 26 20 19 27 30 30 31 34 37 37 37 37 36 37 37 38 39 39 39 39 40 39 39 40 39 37 37 39 41 40 40 40 38 35 34 34 34 35 36 37
23 26 23 26 26 28 25 27 26 25 25 28 27 22 20 22 24 30 31 34 35 36 37 38 39 38 37 38 38 37 39 38 39 40 40 40 40 41 41 41 41 42 41 41 41 41 38 35 35 34 35 35 34 36
27 29 30 25 27 26 25 26 26 29 30 27 25 25 27 32 32 32 34 34 34 35 35 35 36 36 37 37 37 38 37 37 35 33 32 32 33 37 41 40 40 41 41 41 42 42 41 37 36 35 35 35 35 35
27 31 29 28 26 25 27 27 27 28 28 29 29 29 29 29 30 30 31 32 32 32 33 33 33 33 32 32 32 34 36 36 36 34 31 32 34 38 38 38 39 40 40 40 40 40 42 40 38 34 34 33 33 33
31 30 28 28 24 27 27 28 30 30 28 27 27 27 27 28 31 29 29 29 29 30 31 30 31 31 31 30 29 30 30 35 34 35 35 35 35 36 37 38 39 39 40 39 39 39 38 38 37 33 33 32 33 33
28 27 27 21 22 25 28 27 27 26 26 25 25 26 27 27 26 29 28 28 28 28 31 29 28 29 30 30 31 31 35 33 33 33 33 35 35 36 37 38 39 39 39 39 39 38 38 37 37 36 33 32 34 33
24 25 24 21 18 26 26 23 27 27 29 28 29 29 27 27 26 28 28 27 28 27 27 27 27 27 28 29 30 32 34 34 33 38 38 39 39 39 38 36 37 38 38 38 38 38 37 37 37 37 36 34 36 34

GFSWCAN_sfc_temp_159.txt.gz
Temp
55 53 53 54 55 55 53 53 54 54 56 56 56 56 56 55 55 43 39 42 39 33 36 36 37 32 31 32 26 30 29 31 30 26 26 25 25 27 26 29 28 28 25 24 24 22 20 40 40 35 41 43 46 46
54 54 54 53 54 54 54 52 52 51 53 54 56 56 56 55 55 50 37 42 43 36 34 40 41 43 41 39 34 32 31 31 33 28 29 29 27 27 28 23 31 26 30 26 29 30 39 40 42 44 44 44 45 46
52 53 53 53 53 54 54 53 53 53 51 51 52 52 54 54 54 52 43 41 40 36 34 34 34 42 43 43 46 31 33 37 34 37 33 31 26 29 25 26 28 32 35 33 32 37 37 40 43 44 45 45 46 47
51 52 52 53 53 53 53 54 54 54 53 53 52 53 53 53 54 53 40 42 41 36 28 29 40 35 42 42 42 42 39 41 37 33 31 30 28 32 28 31 29 34 35 32 30 35 38 41 42 44 46 46 45 47
52 52 52 52 52 53 53 53 54 54 54 54 53 53 54 53 51 46 42 42 43 36 24 25 34 40 42 39 38 40 38 36 34 32 31 28 32 30 32 30 26 35 32 31 33 38 40 44 46 46 44 45 46 45
51 51 52 52 52 52 52 52 52 53 54 53 54 54 50 50 50 41 35 39 44 40 33 21 33 33 36 38 38 37 38 37 36 34 32 33 34 32 26 21 31 38 40 44 41 41 42 45 45 45 44 47 48 46
51 51 51 51 51 51 51 51 51 52 53 54 53 53 51 51 43 36 33 37 45 42 33 24 24 32 34 35 34 34 39 37 36 34 31 33 33 34 22 24 33 38 40 43 43 42 39 42 41 45 45 47 48 47
50 50 50 50 49 49 50 51 51 52 53 53 52 52 50 47 46 39 42 46 43 35 34 18 22 25 34 30 29 32 31 34 34 33 32 29 31 31 21 32 37 40 42 41 42 42 44 46 45 44 45 45 44 44
49 49 49 49 49 48 50 51 52 52 53 49 47 46 43 39 35 36 47 47 38 32 24 25 19 20 33 29 32 32 31 27 32 29 30 30 27 24 31 34 35 38 36 38 41 41 41 40 41 43 44 44 43 44
48 49 49 48 47 49 51 52 52 52 48 47 42 36 30 35 47 45 39 34 33 32 32 24 25 20 29 32 30 31 33 29 23 27 34 28 26 35 37 39 40 41 41 42 37 36 37 38 40 42 42 44 44 45
48 49 48 46 45 47 51 51 50 48 46 36 32 30 36 47 37 34 28 28 27 25 27 26 28 28 34 27 26 30 20 18 22 23 28 27 24 31 37 37 39 40 39 39 42 43 44 44 43 42 42 44 45 46
48 49 48 45 44 48 48 47 47 39 37 37 36 39 37 33 29 25 14 19 21 24 23 25 27 29 31 32 28 26 22 25 21 30 27 22 30 37 38 39 41 41 40 39 40 40 42 43 44 45 45 45 46 48
48 49 48 45 45 42 47 47 47 46 42 36 30 29 21 20 15 12 5 17 17 25 27 27 26 29 29 28 22 26 23 23 28 26 22 28 34 37 38 39 41 43 43 42 40 41 42 42 43 45 45 47 49 49
48 48 48 46 45 44 47 48 48 43 34 21 14 13 11 12 17 12 15 21 27 27 27 27 27 28 28 26 24 21 23 24 22 21 23 29 32 35 36 38 38 39 40 39 42 42 42 41 41 44 45 47 48 48
48 47 47 46 46 44 47 47 45 37 28 20 17 10 15 20 13 17 17 20 25 27 28 28 27 29 27 23 27 23 21 19 21 21 27 29 33 33 34 35 36 37 38 38 41 40 41 41 40 42 45 46 48 49
49 46 42 48 46 45 44 44 39 38 32 23 22 19 21 20 13 16 20 14 23 26 30 32 20 24 22 20 17 21 19 19 25 29 29 31 31 31 31 33 35 37 37 38 39 40 41 41 40 41 44 46 47 48
47 37 46 48 48 45 41 38 36 30 26 20 24 27 24 23 20 16 24 25 34 32 25 28 22 17 23 22 20 24 23 30 31 30 29 30 30 31 32 33 35 36 36 37 38 40 40 42 41 41 41 42 44 47
35 39 47 48 44 40 37 35 27 24 21 12 19 23 24 25 23 24 26 28 31 29 28 26 28 24 22 21 24 28 30 29 28 29 29 30 30 31 34 32 35 34 34 35 36 38 40 40 39 38 39 41 42 44
38 38 47 46 40 34 30 30 26 21 18 24 24 24 25 26 26 27 28 30 31 33 30 26 24 23 26 26 29 28 27 28 28 29 30 31 31 32 33 33 34 33 33 33 34 36 38 38 39 40 39 40 39 41
47 46 47 45 41 24 21 24 28 16 16 24 25 24 24 25 27 27 26 28 26 24 23 22 24 26 25 27 28 29 29 29 27 27 30 33 32 32 32 32 33 33 32 33 34 39 37 38 38 39 40 40 39 40
42 42 44 38 33 24 19 18 14 19 23 24 27 25 25 27 26 25 27 28 21 22 26 26 22 26 29 29 29 29 29 28 28 28 29 30 35 31 32 33 32 32 31 32 33 35 37 36 37 38 38 38 40 41
38 40 35 36 30 24 18 24 23 26 23 26 27 25 23 21 24 25 28 24 23 28 29 27 28 30 28 27 30 29 31 31 30 31 36 35 31 31 30 31 30 31 31 32 34 34 35 36 37 39 39 38 39 40
40 36 30 26 23 19 18 29 26 27 22 17 25 18 15 19 24 27 24 26 27 29 30 29 31 31 31 31 31 31 31 31 30 31 32 32 32 32 31 31 32 31 32 34 35 35 36 39 40 41 40 39 38 38
38 24 25 23 20 19 24 23 26 25 25 21 20 11 16 18 24 25 24 25 27 28 28 29 28 28 28 28 27 30 32 31 31 32 32 31 30 32 33 33 34 35 35 35 35 39 40 39 41 40 39 38 38 37
21 20 22 14 17 21 21 20 20 22 9 21 18 12 16 22 17 18 21 25 27 27 28 29 28 28 28 29 31 31 34 34 33 32 36 34 33 34 34 35 37 37 38 38 38 38 38 39 39 39 38 37 36 36
10 13 13 13 18 18 20 18 18 21 21 16 20 24 24 20 17 16 23 27 27 28 29 30 30 30 30 31 31 33 35 35 35 34 37 37 36 35 35 35 34 36 40 40 38 36 36 37 38 38 37 37 39 37
7 10 18 24 22 24 22 25 25 23 21 18 20 22 19 12 16 24 28 28 29 30 32 33 33 32 33 34 35 36 37 38 37 39 39 36 37 39 38 36 34 37 40 40 40 38 37 37 38 38 37 36 35 35
18 22 20 23 23 25 19 17 19 21 24 26 25 21 18 21 23 28 29 31 32 32 33 34 35 35 36 37 36 36 37 37 38 38 38 38 38 39 39 39 40 41 40 41 40 40 39 38 37 36 35 33 34 35
23 24 23 16 24 25 25 26 26 29 30 28 26 25 27 30 31 33 33 32 32 31 32 32 33 35 35 36 36 36 35 35 34 32 32 32 33 35 37 38 38 38 39 39 41 42 41 40 38 34 33 33 34 34
23 28 27 26 20 21 28 29 28 29 29 30 30 29 28 29 30 30 29 29 30 29 30 31 32 32 30 30 31 32 33 33 33 31 30 30 31 35 35 35 36 37 37 38 38 40 42 40 36 33 33 33 33 33
28 28 28 27 26 27 28 28 29 29 29 29 29 28 27 28 30 28 27 26 28 29 30 30 30 30 29 29 28 28 29 31 32 32 34 35 36 36 36 37 38 38 37 37 37 38 38 38 37 32 32 33 33 34
28 28 27 24 25 28 28 26 26 25 25 26 25 25 27 26 25 27 26 27 28 27 29 28 27 28 29 29 31 33 34 34 34 31 31 34 36 38 38 38 39 38 37 36 36 37 38 38 37 36 32 33 33 32
23 25 24 21 20 24 26 25 25 24 26 26 24 26 26 26 25 28 29 27 27 25 25 26 26 26 26 27 29 32 34 30 31 36 37 38 40 40 40 39 39 38 37 36 35 36 36 37 37 37 35 35 36 35

GFSWCAN_sfc_temp_162.txt.gz
Temp
56 55 55 54 54 54 54 54 53 53 55 55 54 55 55 55 53 51 48 50 46 35 42 43 45 40 39 39 32 40 36 36 32 27 29 31 29 34 33 37 35 31 26 25 27 25 25 51 46 41 49 51 52 51
54 54 54 54 53 53 53 53 53 53 53 53 54 55 55 56 54 52 45 49 52 41 42 48 49 51 49 48 42 40 36 36 38 31 34 33 31 34 34 29 42 31 36 33 30 35 48 48 50 53 54 53 52 52
52 52 53 53 53 53 53 54 53 52 51 51 51 52 54 55 55 51 47 47 45 38 37 38 39 47 52 51 53 35 39 42 38 41 33 32 28 33 27 33 36 42 45 37 37 43 46 49 52 54 54 52 54 55
52 52 53 53 53 53 53 54 54 54 53 52 51 51 52 53 52 52 44 45 44 36 31 40 48 46 52 52 49 48 45 47 43 36 32 31 30 36 34 35 33 39 41 40 41 45 48 50 51 54 55 55 53 55
51 51 51 52 52 53 53 53 53 54 54 54 53 51 50 52 52 49 46 44 45 38 32 38 43 47 49 49 47 46 44 42 37 32 31 31 38 36 40 36 34 43 40 37 39 48 47 50 56 57 54 54 56 53
50 51 51 51 52 52 52 53 53 53 53 53 53 54 52 50 49 40 33 37 44 41 33 30 44 42 46 47 44 43 43 41 36 34 34 36 41 37 31 32 43 46 47 49 46 51 51 54 57 58 55 55 56 55
50 51 51 52 52 52 52 52 51 52 52 52 53 53 52 51 44 38 38 43 43 43 33 31 35 43 42 43 43 42 43 38 38 34 33 38 38 37 33 31 41 46 48 50 51 50 47 51 50 56 55 55 54 55
50 51 51 51 51 51 50 50 50 50 51 52 52 53 52 51 44 39 44 46 46 37 38 28 30 37 43 39 36 40 37 35 35 34 38 35 39 36 29 40 45 46 47 48 49 51 50 53 54 53 55 53 51 51
50 50 50 50 50 50 50 50 50 50 51 51 51 49 41 37 35 39 48 46 45 39 30 28 27 29 41 39 38 35 37 29 39 32 34 36 34 28 37 42 44 46 45 45 48 49 49 48 49 50 51 50 49 50
50 50 49 50 49 48 47 48 50 51 51 48 42 36 32 34 46 46 38 35 35 34 34 28 37 32 39 35 32 33 34 32 28 35 39 31 34 42 45 47 48 48 47 45 41 42 45 45 47 48 49 51 52 52
49 50 49 49 48 46 47 48 50 51 46 37 34 33 39 47 40 37 29 28 29 27 31 34 36 35 42 35 33 34 31 32 25 33 31 33 34 42 48 48 48 49 47 47 45 47 48 48 48 48 49 51 51 53
50 50 49 48 46 45 47 49 46 41 37 38 40 41 40 34 30 28 25 27 28 29 32 32 34 37 38 40 34 31 30 28 23 34 29 29 39 45 46 45 46 46 45 45 47 47 47 48 49 49 49 50 52 53
50 50 49 48 45 46 47 47 47 46 46 41 37 31 30 26 22 21 18 23 25 33 34 33 30 33 33 33 30 29 25 26 37 27 27 36 44 46 45 45 45 47 46 46 46 46 47 47 49 48 48 51 52 52
49 50 48 46 43 43 45 46 45 43 39 31 27 20 24 21 25 26 29 31 35 35 34 36 32 32 34 29 32 25 31 30 25 24 29 40 44 44 44 44 43 43 44 43 44 46 46 44 44 48 49 51 51 51
49 49 47 45 43 43 45 46 45 40 34 27 28 21 20 29 28 30 31 32 34 37 35 33 33 33 30 27 29 29 24 23 26 29 39 43 42 41 42 42 43 43 42 42 43 43 43 41 41 45 50 51 52 52
49 47 44 47 43 39 45 44 41 39 33 28 27 25 28 29 26 28 31 31 35 36 37 37 29 27 26 26 23 25 24 23 32 37 41 41 41 41 42 43 43 43 43 43 42 42 41 40 39 44 48 49 50 51
48 41 46 48 43 41 43 40 38 31 28 27 27 32 32 32 32 30 34 35 37 33 29 30 25 23 29 24 23 31 29 36 41 40 41 41 41 42 43 42 42 43 42 43 42 42 43 42 42 43 44 46 47 49
41 44 47 46 40 38 36 35 31 28 23 25 28 31 31 35 34 34 35 35 34 33 33 29 30 25 25 24 28 34 36 40 41 39 40 41 42 43 42 41 42 42 42 42 42 43 42 41 41 42 43 44 47 47
42 43 47 44 41 34 31 31 31 24 26 30 31 32 33 34 36 37 38 37 38 38 35 30 27 26 27 34 35 38 39 38 38 39 40 42 42 41 41 41 41 42 42 42 42 42 41 42 44 44 45 45 44 46
47 47 47 45 42 33 28 28 32 27 26 30 31 30 33 34 36 35 35 35 35 33 29 27 29 35 35 38 38 39 41 41 38 37 39 43 45 42 42 41 41 42 41 43 43 42 43 44 46 46 44 44 44 43
44 44 45 42 34 31 29 26 25 28 31 30 32 32 32 33 33 33 33 34 31 29 29 34 35 37 39 40 40 39 39 39 38 39 39 39 44 43 42 43 42 41 41 41 42 42 43 43 44 45 45 45 46 44
39 41 36 37 31 30 28 31 31 31 30 30 29 31 29 28 30 32 34 30 30 35 35 38 39 40 39 38 40 40 41 42 41 40 39 40 39 42 42 42 40 40 41 41 42 42 43 45 45 45 45 46 45 46
41 38 32 29 26 24 24 32 27 29 24 23 27 24 26 28 32 34 30 32 35 38 39 40 41 41 40 42 41 40 41 39 39 41 41 42 43 42 42 41 41 39 40 43 44 43 42 43 43 42 44 44 43 44
40 30 27 24 24 22 26 25 28 27 27 23 22 19 24 28 31 27 26 31 36 38 38 38 38 38 39 38 37 40 42 41 40 41 42 41 41 42 43 42 42 43 42 43 43 43 41 40 41 41 41 40 41 42
25 22 25 20 22 22 22 21 22 23 17 23 20 20 24 28 25 24 24 31 34 36 39 39 38 38 37 39 40 41 42 41 41 41 44 43 43 42 42 43 43 43 44 41 40 39 38 38 38 39 40 40 39 40
15 19 20 19 21 21 23 20 19 22 24 21 22 28 28 26 19 21 29 35 36 38 39 39 39 38 38 38 38 40 43 44 42 39 43 43 43 41 40 39 39 41 45 43 40 38 38 37 37 37 38 40 40 40
13 16 22 28 28 27 26 28 29 26 22 20 24 24 23 17 19 28 36 37 37 39 39 39 39 39 39 40 41 42 43 42 42 43 44 43 43 43 42 40 38 40 42 42 42 40 38 38 37 37 38 39 40 40
24 25 22 25 25 28 21 23 23 23 26 30 29 23 21 23 26 35 35 38 37 38 38 39 40 40 39 40 41 40 42 41 42 42 43 43 43 43 43 43 42 40 41 42 41 40 39 39 38 38 37 37 40 41
24 27 26 17 25 26 25 26 27 31 34 32 28 27 29 34 35 35 34 36 37 37 36 37 38 38 39 39 39 39 38 38 38 36 36 36 38 40 40 39 39 39 40 39 40 41 40 40 39 39 40 39 39 39
25 29 26 24 20 22 29 32 31 32 33 34 35 32 30 32 34 34 34 34 34 34 34 35 34 35 34 34 35 36 36 36 36 34 32 32 33 36 37 37 38 38 39 38 38 40 42 41 39 41 39 39 38 38
30 29 27 28 27 30 32 32 32 32 31 31 32 31 32 33 33 32 31 30 32 34 34 33 34 33 33 32 32 32 33 36 36 36 35 36 36 37 38 39 39 40 39 39 38 39 39 38 38 38 39 38 38 38
30 28 27 26 27 29 30 29 29 28 28 28 28 29 30 30 29 30 30 31 32 31 31 31 30 31 32 32 34 35 35 36 35 34 34 35 37 38 39 40 41 40 39 38 38 38 39 38 38 37 37 38 38 37
25 27 26 24 25 26 27 27 26 26 27 26 27 29 29 29 27 30 32 31 30 29 29 30 30 30 30 30 32 33 35 34 34 35 36 38 39 40 40 40 40 39 38 37 37 37 38 39 38 37 36 38 38 37

GFSWCAN_sfc_temp_165.txt.gz
Temp
55 56 56 55 54 54 55 54 52 52 52 52 53 53 54 54 54 52 51 54 50 39 47 50 51 46 46 45 37 44 39 40 36 29 31 33 31 36 34 39 36 33 28 28 30 24 23 51 49 41 48 55 55 55
54 54 54 54 54 54 54 54 54 53 53 52 54 54 54 54 54 54 50 54 56 44 46 54 54 56 54 52 47 45 41 42 43 35 37 37 32 36 35 29 40 28 38 33 33 36 47 48 46 54 57 55 55 55
53 53 53 53 54 54 54 54 54 54 53 51 51 50 51 53 54 53 52 52 50 41 41 42 43 53 57 56 58 39 42 46 43 47 37 34 29 36 29 34 37 44 47 38 39 45 48 49 52 54 56 57 58 58
52 52 53 53 53 53 54 54 54 54 54 53 51 50 51 51 52 52 47 50 47 40 32 42 55 49 56 56 54 53 50 51 48 38 32 32 31 40 35 38 37 41 43 40 40 46 49 52 52 55 57 58 58 58
51 51 51 51 51 52 52 53 53 54 53 54 54 52 51 50 50 49 47 47 51 43 35 41 49 52 54 54 52 52 49 47 41 34 31 31 39 37 41 41 37 45 41 37 35 47 43 50 54 58 56 56 58 57
51 51 51 51 52 52 52 52 52 53 53 53 53 53 53 52 49 40 33 38 47 46 34 31 46 46 49 50 49 48 48 46 42 36 35 38 44 37 32 33 45 49 51 50 46 52 52 54 56 58 57 57 58 57
50 51 51 51 52 52 52 52 52 52 53 52 53 52 52 53 44 37 37 43 45 41 33 30 33 43 46 46 46 46 46 42 38 35 35 39 39 39 35 32 44 49 51 52 53 52 48 52 50 57 58 58 58 58
51 51 51 51 51 51 52 52 51 51 51 51 51 52 51 51 45 40 44 46 44 36 35 29 31 36 44 38 37 43 37 38 36 36 40 37 40 39 30 42 47 50 51 51 51 53 52 54 55 54 57 56 54 54
50 50 50 50 51 51 51 50 50 50 50 51 51 50 44 38 35 38 47 46 44 40 31 32 30 29 43 41 39 36 37 30 40 32 36 38 35 30 39 44 46 49 49 49 51 51 51 50 51 53 54 54 52 53
49 50 50 50 50 50 50 49 50 49 49 49 45 40 33 36 44 45 39 34 34 35 38 32 40 33 41 39 33 34 36 32 27 36 42 32 34 44 47 49 51 51 52 52 46 45 46 47 50 52 52 54 54 55
50 50 50 51 50 49 49 49 49 48 48 38 36 36 40 44 39 35 30 30 31 28 33 37 38 37 46 37 35 38 33 33 26 35 33 33 35 44 51 52 54 54 53 52 51 51 50 48 49 50 51 53 54 55
49 49 50 50 50 48 47 46 47 41 38 41 39 39 38 35 32 29 27 30 29 29 34 33 36 41 43 46 38 35 30 32 25 39 31 29 42 49 51 51 52 52 50 49 50 48 49 49 51 51 51 52 53 54
49 49 50 49 47 45 44 47 47 46 46 44 37 32 31 29 24 24 20 26 28 35 36 36 32 37 38 39 35 33 27 27 39 29 29 38 46 50 51 51 50 50 50 49 49 50 50 50 50 49 47 50 53 53
49 49 49 46 43 44 46 47 47 47 42 33 29 23 26 23 28 30 31 33 38 40 38 39 33 33 36 32 32 27 33 33 26 26 30 43 47 50 51 50 48 48 48 48 48 48 48 48 47 47 44 46 50 51
48 49 48 44 41 41 41 46 45 44 39 31 31 24 25 33 35 37 37 36 39 42 40 34 35 35 31 29 31 29 25 24 30 31 41 48 48 47 46 47 47 47 48 47 47 46 46 47 46 43 44 44 49 52
48 48 46 45 41 39 42 43 43 41 35 31 30 28 34 33 30 34 37 35 40 40 40 39 30 28 28 28 25 26 26 26 34 42 46 47 46 46 46 47 48 48 47 47 47 46 46 45 43 41 41 42 49 52
46 44 47 45 41 39 43 40 38 31 30 30 30 38 39 40 35 36 41 40 42 36 32 32 26 26 33 26 24 34 32 38 44 46 47 46 45 46 47 47 47 46 46 46 46 47 45 45 42 40 38 42 47 50
44 48 45 43 40 38 38 38 33 31 28 30 32 35 39 42 39 38 42 42 39 36 35 31 34 27 27 25 29 36 40 40 44 45 46 45 46 48 48 46 46 46 46 46 46 46 45 43 41 41 41 41 45 48
47 46 45 44 41 35 32 32 32 28 31 35 36 38 40 40 42 43 43 41 42 42 37 33 29 29 32 37 37 39 40 42 41 43 44 46 47 47 46 47 46 46 46 46 46 45 45 44 43 44 45 44 42 44
48 47 46 45 44 34 30 29 34 31 31 34 36 35 38 39 41 40 40 39 36 35 31 29 32 37 39 42 44 43 45 45 43 40 41 46 49 49 47 46 45 46 45 46 46 45 46 46 46 47 48 46 44 44
46 46 45 45 37 35 33 29 28 33 35 34 36 36 36 38 37 37 36 40 33 32 32 37 38 42 46 46 46 44 43 44 42 42 42 42 47 47 47 47 47 46 44 45 45 46 46 46 47 48 47 47 48 47
42 43 38 41 32 32 31 34 34 35 34 33 33 35 33 33 34 36 40 33 34 37 38 41 43 44 44 44 46 47 46 46 46 45 44 44 42 44 46 46 44 42 44 45 45 45 46 47 46 44 43 44 46 47
43 41 34 32 29 29 26 35 29 32 26 26 29 27 30 32 36 39 32 37 39 43 44 44 45 46 45 47 47 47 47 45 44 45 45 46 47 47 47 46 46 43 42 45 47 46 44 43 43 42 42 42 43 44
42 33 30 27 29 24 29 27 31 29 29 25 24 23 27 31 34 31 30 36 40 44 43 43 44 43 45 45 43 45 47 48 46 46 47 45 45 46 48 47 46 46 46 45 44 42 42 41 40 40 40 40 41 41
29 25 28 21 27 25 23 24 24 25 22 26 23 24 28 32 27 26 27 36 39 41 43 45 45 44 42 44 46 47 48 46 44 44 48 48 47 47 46 46 46 46 47 44 43 42 41 41 39 38 38 39 39 40
22 23 25 25 25 24 26 21 22 24 27 24 26 31 32 30 24 24 33 40 41 43 43 43 43 43 43 45 43 42 46 48 47 44 46 47 47 45 43 42 42 43 46 44 43 41 40 39 38 38 37 38 40 41
20 21 27 33 33 31 29 32 33 30 25 23 27 27 26 20 22 32 41 42 41 43 44 43 43 43 43 44 44 45 46 46 45 46 47 46 46 46 43 42 40 42 43 43 43 42 39 38 37 38 38 38 39 41
30 30 25 28 29 33 25 28 26 26 28 33 32 24 22 25 29 38 39 41 41 42 42 44 44 44 43 43 43 43 44 44 45 45 45 45 45 45 44 44 44 40 41 42 41 41 40 39 38 38 38 39 38 41
29 31 30 21 28 28 28 28 29 34 37 35 31 30 32 38 39 39 36 34 39 40 40 41 42 42 42 42 42 41 40 39 38 37 37 37 39 40 41 40 40 41 41 40 40 40 41 41 39 39 38 39 41 41
29 34 29 26 23 24 32 35 34 36 37 38 38 36 36 36 35 37 37 34 37 38 38 38 38 38 37 37 37 38 39 39 38 35 33 33 34 37 38 38 39 40 40 40 39 39 41 41 39 38 39 39 40 39
34 32 30 30 28 33 35 37 36 35 33 33 35 33 34 36 37 37 36 36 37 37 37 36 36 36 35 34 33 34 35 38 38 37 36 37 38 38 39 39 40 40 40 39 39 38 38 38 36 37 38 38 39 39
32 29 29 27 29 31 32 31 31 31 31 30 29 30 31 31 30 34 34 35 36 35 33 34 33 33 34 34 36 37 36 37 36 36 35 37 37 39 39 40 41 40 40 39 38 38 38 38 37 37 36 38 38 38
28 29 28 27 27 27 29 29 28 27 28 28 29 30 31 30 28 32 35 35 34 33 32 32 33 33 33 33 34 35 36 36 36 36 37 38 39 39 40 40 40 40 38 38 38 38 38 38 37 37 37 38 39 38

GFSWCAN_sfc_temp_168.txt.gz
Temp
54 54 55 55 56 55 55 55 54 53 53 54 54 53 53 53 51 46 44 50 46 37 44 50 50 45 45 43 34 43 38 38 33 25 26 29 28 32 30 35 32 29 23 22 26 21 21 43 42 31 39 46 48 49
53 54 54 54 54 54 54 54 54 54 54 52 51 52 53 53 52 51 45 52 52 41 43 52 54 56 54 52 44 42 39 38 38 31 33 33 30 33 31 24 39 26 31 28 28 30 43 47 42 46 48 48 48 49
53 54 54 53 53 54 54 54 54 54 54 53 52 51 51 52 53 50 46 50 48 41 41 43 43 53 57 56 57 36 41 46 42 44 34 31 23 31 24 28 32 38 43 33 34 39 43 46 48 50 50 50 52 52
52 52 53 52 53 53 53 54 54 54 53 53 53 52 51 49 50 51 44 50 48 40 32 39 53 48 56 56 54 52 48 48 44 37 31 28 25 34 29 33 32 37 39 36 36 41 40 45 47 50 51 52 52 52
51 51 51 52 51 51 51 52 53 53 53 53 53 54 52 50 49 46 45 47 50 42 32 38 48 51 53 52 51 51 48 45 39 32 29 26 33 32 35 34 31 39 36 35 32 43 39 40 47 51 50 50 52 52
51 51 51 51 51 52 52 52 52 52 53 53 53 53 53 53 48 40 32 39 46 46 34 31 46 46 49 50 48 46 46 43 41 34 32 34 40 33 27 27 39 43 46 46 42 47 46 48 50 52 51 53 53 52
51 51 51 51 52 52 52 52 52 52 53 53 53 52 52 52 43 37 36 42 45 42 32 30 32 43 47 46 45 44 45 41 39 35 32 34 36 35 29 26 38 43 46 47 49 47 43 47 45 50 51 53 54 52
51 51 51 52 51 51 51 52 52 52 51 51 51 50 50 50 48 40 43 46 43 34 33 29 29 34 45 35 35 42 38 37 35 33 35 33 36 34 26 36 41 44 46 46 47 48 46 48 49 49 51 51 49 48
50 50 51 51 50 50 50 51 51 51 51 50 51 50 45 40 36 37 47 46 42 36 30 30 27 26 41 36 36 36 37 29 36 30 32 34 30 27 33 39 42 44 44 45 47 47 45 44 45 47 47 48 47 47
49 49 50 50 50 50 51 51 51 50 50 50 44 37 32 36 46 46 34 32 32 32 35 31 39 29 37 35 32 32 33 28 25 31 37 29 29 39 43 45 47 47 48 48 43 42 43 41 42 44 45 48 49 49
50 50 50 50 50 50 51 51 50 49 48 39 34 33 39 46 39 34 30 29 29 27 31 35 38 33 43 33 31 34 30 29 20 29 29 28 28 38 44 45 47 48 49 49 48 46 46 45 45 45 47 48 49 49
50 50 49 50 50 50 49 48 48 44 39 38 38 39 38 34 31 27 26 29 27 27 33 33 35 40 39 42 35 32 28 28 20 34 28 25 35 44 46 46 48 48 45 44 45 45 46 47 46 46 45 46 47 48
50 50 49 50 49 47 45 43 47 46 43 40 35 31 31 30 23 23 19 23 26 35 35 36 32 35 37 36 32 29 22 24 34 24 24 30 39 45 45 46 46 47 44 45 46 47 47 48 48 47 46 49 47 44
49 50 49 49 46 45 40 48 47 44 40 32 28 22 25 21 25 28 29 31 36 37 35 36 33 32 34 30 30 24 29 28 21 22 26 34 41 43 45 46 44 41 44 44 45 47 45 44 44 46 48 47 46 44
49 49 49 48 44 43 42 42 42 41 37 30 30 21 23 33 34 35 36 34 38 39 36 32 32 32 28 27 29 27 23 18 24 26 32 39 41 42 41 42 41 41 42 43 44 43 43 43 42 43 45 45 46 44
48 47 46 46 43 42 43 42 42 41 35 31 30 27 32 30 30 33 35 33 38 38 37 35 28 25 23 27 24 24 23 23 29 34 38 40 39 40 40 42 42 42 42 42 42 43 44 43 42 42 44 43 42 41
47 42 47 44 40 41 43 39 38 31 30 28 29 36 34 35 31 32 36 35 41 34 27 27 19 20 28 22 23 28 27 31 35 37 40 41 39 39 40 41 42 42 41 41 42 43 44 44 43 41 40 42 42 41
42 45 45 42 39 36 37 36 32 30 27 30 31 33 37 38 36 36 38 39 36 32 31 25 30 22 20 19 25 30 31 32 35 37 38 39 39 40 42 40 42 41 40 41 42 43 42 41 40 40 41 43 43 42
45 44 45 43 39 35 32 31 32 27 30 33 33 35 36 36 38 39 39 40 40 39 34 29 24 24 28 33 33 34 34 34 35 37 37 39 41 42 42 42 42 40 40 40 41 41 41 42 41 42 42 43 42 43
48 46 46 44 42 33 30 29 33 30 29 32 34 33 34 35 37 38 36 36 36 34 29 26 27 33 33 35 38 37 37 37 36 35 36 40 43 42 41 40 40 40 40 40 41 44 41 41 43 43 44 43 43 42
45 44 44 43 35 34 32 29 28 31 33 31 33 33 32 34 33 34 34 36 31 30 28 33 31 34 40 40 41 40 38 38 36 36 36 36 40 40 39 40 40 40 38 38 38 39 42 41 43 43 43 43 43 44
42 45 38 40 32 31 30 34 33 34 32 31 31 32 30 29 30 33 36 32 31 33 34 35 36 38 39 39 40 42 42 40 40 39 43 41 36 37 38 39 38 36 37 37 39 39 39 43 42 42 42 42 43 43
44 41 33 31 24 26 25 34 28 31 25 27 29 26 26 28 32 36 29 32 34 39 40 40 40 41 40 42 42 42 42 40 38 39 40 40 40 40 40 40 39 37 36 38 40 39 40 43 42 41 41 40 40 40
42 33 27 26 26 23 29 23 30 28 28 25 24 22 25 28 32 29 27 32 36 39 37 39 38 37 38 39 37 39 41 42 40 40 40 39 37 39 41 40 40 40 40 39 39 38 42 42 42 40 39 38 39 39
27 24 25 18 27 24 24 23 25 25 22 25 22 20 25 30 25 25 25 31 33 35 37 38 38 38 36 37 38 40 43 41 38 37 41 41 40 39 39 40 40 41 41 38 37 37 41 42 41 39 38 38 37 38
21 22 23 23 25 23 25 21 22 24 26 21 25 29 29 27 21 21 29 33 34 36 37 37 37 37 37 39 37 37 39 42 40 38 40 41 41 39 37 36 34 37 41 39 37 37 39 39 39 38 37 38 39 38
17 17 26 32 31 30 28 30 31 28 25 21 24 24 24 14 19 28 34 35 35 37 39 39 38 37 37 38 40 40 40 41 40 40 42 41 41 41 39 36 36 37 38 38 38 39 38 37 38 38 37 38 38 38
27 29 23 27 29 31 23 25 24 24 27 30 29 22 19 22 25 32 34 36 37 38 38 39 40 39 38 38 38 38 39 39 41 42 42 42 42 41 39 39 39 41 38 41 39 39 38 38 37 38 37 37 38 39
28 31 28 17 27 28 27 28 28 31 34 31 28 27 29 33 35 35 35 35 35 35 36 36 37 38 38 38 37 37 36 36 36 33 33 33 35 35 38 38 38 39 40 39 40 40 40 39 39 39 38 38 39 39
27 33 27 24 19 22 29 32 31 33 34 33 32 32 32 32 33 34 34 32 33 33 34 35 34 34 32 32 33 34 36 36 35 33 30 30 32 36 37 38 38 39 39 39 38 39 41 40 40 38 37 37 37 37
31 30 28 28 25 30 31 34 33 33 31 30 32 30 30 33 32 33 32 32 32 33 34 32 32 32 31 31 31 31 32 36 36 35 35 34 36 37 37 38 39 39 39 38 38 37 37 37 36 35 35 36 36 37
30 28 27 23 27 30 31 30 30 29 29 30 30 29 31 30 29 32 30 30 31 30 32 31 30 30 32 32 33 36 36 35 33 33 33 34 36 37 38 39 39 39 38 37 37 37 37 36 36 34 35 35 37 36
28 30 29 27 26 27 28 28 27 27 28 28 28 30 29 29 27 30 31 32 29 28 29 29 30 31 31 31 32 33 35 33 35 37 38 38 39 39 38 37 37 37 37 36 36 37 36 36 35 36 36 36 38 36

GFSWCAN_sfc_temp_171.txt.gz
Temp
53 52 52 53 54 55 55 55 55 55 55 53 54 54 53 51 51 45 43 45 40 33 39 46 48 41 40 36 27 35 30 29 22 15 17 21 21 25 24 27 25 22 15 12 14 14 18 41 41 34 39 43 44 44
53 54 53 52 53 54 54 54 55 54 54 53 52 50 51 52 51 48 40 47 48 38 38 48 49 50 50 47 38 35 33 32 30 21 22 24 23 24 24 18 29 20 26 21 24 27 39 41 40 46 44 45 45 45
53 53 53 53 54 53 54 54 54 54 54 54 52 52 52 51 51 49 42 44 43 37 35 38 39 48 52 51 49 30 31 39 35 34 24 19 14 21 14 20 22 30 35 30 29 34 36 40 43 46 47 48 47 50
51 51 52 52 52 52 52 52 53 53 53 53 53 54 52 51 50 47 43 45 42 36 29 33 48 41 49 49 48 45 42 41 36 30 19 14 15 23 18 25 24 29 33 29 29 34 37 40 44 44 47 49 48 50
51 51 51 52 52 52 52 51 51 52 52 52 52 53 53 53 50 43 42 44 45 37 28 32 43 47 48 47 46 45 42 36 30 25 19 19 26 25 24 25 23 31 31 26 25 37 35 37 45 46 46 46 49 47
51 51 51 51 51 52 52 52 52 52 52 53 53 53 53 52 47 40 33 39 43 43 33 29 40 41 43 44 43 42 41 36 33 29 24 28 33 26 14 17 30 36 38 40 37 42 41 43 45 49 47 48 49 48
51 51 52 52 52 51 51 51 52 52 52 52 52 52 51 51 39 37 36 40 44 42 32 30 30 39 45 42 39 38 40 35 33 30 27 27 29 30 23 21 32 37 39 41 44 41 39 42 40 45 46 49 50 48
51 51 51 51 51 51 51 51 51 51 52 52 51 50 49 49 45 38 42 45 44 34 32 28 28 32 42 31 31 39 35 35 33 31 28 26 29 26 18 30 34 38 40 40 41 44 43 43 42 44 46 46 45 44
50 50 50 50 50 51 51 51 51 51 51 51 49 49 41 38 35 35 47 45 42 35 29 29 26 23 37 32 34 33 34 28 33 26 28 29 23 20 29 31 35 38 38 39 42 42 42 42 41 42 42 43 42 43
51 51 51 51 50 50 51 51 51 51 50 48 43 36 32 36 46 45 37 33 33 32 32 29 34 27 35 32 30 30 31 27 23 26 30 22 22 36 36 38 38 41 42 41 37 37 38 38 39 40 41 43 45 44
51 51 51 51 50 50 50 50 50 49 47 38 34 33 39 45 37 34 27 25 28 25 29 31 34 28 38 29 29 32 27 25 11 22 24 22 21 33 38 40 42 44 45 45 44 43 42 42 41 40 41 43 44 44
51 51 51 50 50 50 50 49 48 41 38 38 37 38 34 33 25 22 15 27 25 24 28 28 32 35 35 38 30 30 26 26 15 29 23 19 27 37 39 40 42 44 43 42 43 43 42 43 42 42 42 42 43 44
50 50 50 50 50 49 48 47 46 44 44 40 34 31 29 28 17 12 10 12 20 26 29 32 30 31 33 32 30 24 16 20 29 15 18 24 32 40 39 40 42 42 43 43 42 41 42 43 44 43 42 44 44 43
49 49 49 49 49 48 46 44 42 43 36 30 27 22 22 17 16 16 18 20 28 28 27 32 27 28 31 28 27 21 23 22 14 17 21 27 33 36 38 40 41 40 41 40 40 42 42 42 41 43 43 43 43 42
49 48 48 48 48 45 43 43 41 40 34 27 25 12 15 24 21 26 24 25 31 35 32 27 28 28 24 23 22 21 18 14 19 22 26 31 34 37 36 38 37 37 38 39 39 40 40 40 40 40 41 41 41 42
48 47 43 47 44 43 42 40 40 39 33 24 21 18 26 25 20 23 28 29 31 35 33 30 22 20 16 18 15 20 18 19 24 26 30 32 33 36 36 37 37 37 36 37 38 39 40 40 40 40 41 41 41 44
47 37 46 44 42 42 42 37 35 28 26 23 23 29 27 27 23 25 31 33 35 29 18 18 12 16 22 19 16 23 23 26 28 29 32 33 33 34 35 36 37 37 37 36 36 38 40 42 41 39 38 41 43 43
37 39 46 43 39 38 36 34 31 27 22 22 25 28 28 30 29 29 31 33 33 24 21 18 22 14 14 12 19 23 26 29 29 30 32 33 34 35 38 35 36 37 36 36 37 38 39 39 38 37 39 40 42 42
40 40 45 43 39 34 29 29 31 23 26 30 29 29 30 29 31 32 32 33 33 32 26 18 15 16 22 27 27 28 28 29 30 33 36 37 36 35 37 37 37 36 36 35 36 37 39 39 38 39 39 41 40 41
47 46 44 43 41 31 24 24 29 27 23 28 30 30 30 29 30 30 28 30 27 25 19 16 20 26 27 29 31 31 32 32 32 32 33 35 38 38 37 36 36 35 36 37 37 41 38 38 39 40 43 42 41 41
43 42 42 41 33 30 25 27 21 25 28 26 29 29 28 29 28 28 28 30 30 28 22 25 22 25 33 34 35 36 37 36 34 34 33 33 37 36 35 36 35 35 35 35 35 36 39 37 39 42 42 42 43 43
36 43 37 37 23 23 29 31 24 28 28 26 27 27 26 25 27 28 30 28 27 28 27 28 29 32 33 34 37 39 39 37 36 35 40 38 33 33 34 35 33 33 34 34 35 35 36 38 39 39 40 41 42 41
41 36 30 28 18 16 23 28 19 26 15 19 25 20 18 22 27 30 26 27 28 31 33 34 34 35 35 37 38 38 38 37 33 33 34 34 35 35 35 35 35 34 34 35 37 36 36 40 41 40 41 41 40 40
40 26 19 16 14 20 25 16 20 20 22 21 19 16 19 21 28 23 23 25 28 32 31 33 33 32 33 35 34 35 37 36 34 34 35 33 33 34 36 36 36 37 37 37 36 36 36 36 42 42 40 39 39 38
25 22 17 16 22 19 19 22 19 19 14 20 16 13 19 25 18 20 23 25 27 29 30 32 32 32 31 32 34 34 38 36 34 33 36 36 35 35 35 36 37 37 38 36 35 35 34 35 36 40 39 39 38 38
20 19 14 16 19 20 21 17 19 21 21 14 20 23 24 21 15 17 25 27 28 29 30 31 31 30 32 33 32 33 35 36 36 34 35 36 36 35 34 33 31 34 36 37 36 33 33 36 38 38 37 38 39 38
17 16 23 29 25 26 23 25 25 22 21 17 20 19 18 12 14 24 27 29 29 31 34 34 34 32 32 33 35 36 36 36 36 36 38 38 39 40 37 34 32 34 36 36 35 36 37 36 36 36 36 37 38 38
24 26 21 24 25 26 19 16 18 20 23 24 23 18 16 18 21 27 26 31 32 33 33 35 36 35 34 34 33 33 34 35 36 38 38 39 39 38 37 37 37 40 37 38 39 39 38 38 37 36 36 36 37 39
22 23 21 13 22 24 23 24 24 26 28 26 24 21 25 29 30 30 32 35 36 33 31 31 32 33 33 34 33 33 32 32 31 30 31 32 33 33 35 35 35 36 37 38 40 41 40 39 38 38 38 38 38 38
22 25 19 18 13 17 25 26 26 27 27 28 28 28 28 27 27 30 29 28 28 32 33 32 30 29 28 28 29 30 32 32 32 30 29 28 29 34 35 36 37 38 38 38 37 38 40 39 39 38 37 36 36 36
22 23 21 22 17 24 26 29 29 29 26 24 24 26 27 29 29 29 28 28 28 30 30 28 28 29 28 28 27 28 30 34 34 33 34 33 32 34 36 37 38 38 38 38 37 36 36 36 36 35 35 34 35 36
24 23 23 18 19 27 25 26 27 28 27 26 27 29 30 28 27 29 27 26 27 26 30 28 28 28 29 30 31 34 35 33 32 32 32 33 34 36 37 38 38 37 36 36 36 36 36 35 35 34 34 34 36 36
24 26 25 24 21 22 27 27 26 25 26 25 26 28 27 27 26 29 29 29 27 26 26 27 28 28 30 30 30 32 34 32 34 37 37 38 39 38 38 37 37 36 36 35 35 36 35 35 34 34 33 34 36 36

GFSWCAN_sfc_temp_174.txt.gz
Temp
54 54 53 52 52 52 54 54 55 55 55 54 53 52 52 51 50 45 42 44 40 33 35 40 42 39 38 37 29 36 32 30 22 14 15 21 21 24 23 25 25 21 8 13 15 12 16 40 38 30 36 42 41 42
53 53 53 52 53 53 53 54 54 55 55 54 53 52 51 50 50 47 40 46 45 37 36 47 47 49 47 47 37 35 32 31 29 20 21 24 24 23 24 18 26 18 23 17 21 22 37 37 37 42 42 41 44 43
52 52 53 53 52 52 52 53 54 54 54 53 53 52 52 51 50 49 42 43 41 34 36 38 39 48 51 50 51 31 30 37 33 32 22 17 14 21 14 19 20 26 32 27 28 32 33 38 40 43 43 43 46 47
51 51 51 52 52 52 52 53 52 52 52 53 53 53 54 53 50 47 39 43 41 36 30 33 48 41 49 47 47 46 41 38 34 26 16 14 16 22 16 23 22 27 28 26 25 31 34 37 40 42 44 45 47 47
52 52 52 52 52 52 52 52 51 52 52 52 52 52 52 53 50 42 38 41 44 37 29 31 42 47 47 46 44 45 42 35 28 23 19 16 24 24 21 23 19 28 27 23 24 32 33 34 41 43 42 44 45 44
51 52 52 52 52 52 52 52 52 52 52 53 53 53 53 52 47 37 33 38 43 42 32 28 40 40 42 44 43 41 40 34 30 26 21 25 30 26 15 16 27 31 34 35 32 38 37 39 42 43 42 44 46 46
50 51 51 51 51 52 52 52 52 52 52 52 52 52 50 49 38 35 32 40 44 41 32 30 30 38 43 41 39 37 37 33 31 27 26 26 27 27 20 18 28 33 36 36 38 35 34 38 38 43 43 45 46 46
51 51 51 51 51 51 51 51 51 51 51 51 51 50 49 49 44 36 38 46 41 34 32 28 28 31 41 31 31 35 31 32 32 29 27 25 28 29 20 27 32 37 38 37 39 38 40 40 41 42 42 43 42 41
51 51 51 52 51 51 51 50 50 51 51 50 49 48 39 36 33 34 46 46 41 36 28 29 25 25 36 33 34 34 34 28 33 25 27 27 22 17 27 29 32 35 34 36 38 38 38 38 39 41 39 39 39 41
50 51 51 51 52 51 51 50 50 50 50 47 39 35 30 36 46 45 38 33 32 32 32 28 30 24 33 32 30 30 31 28 24 27 30 23 21 33 33 35 37 38 38 38 34 34 36 36 38 38 40 41 41 41
50 51 51 51 51 51 51 50 50 48 45 36 32 32 37 45 38 34 27 25 18 23 28 30 29 28 36 29 28 31 27 27 20 24 24 21 21 30 37 39 41 42 41 40 41 40 40 40 39 39 39 41 41 42
50 51 51 50 50 50 50 50 48 42 35 37 37 39 35 28 28 20 15 20 18 18 24 28 30 31 33 35 30 30 26 25 19 27 18 18 25 35 36 37 39 39 39 39 41 41 42 41 40 40 39 40 41 42
51 50 50 50 50 50 50 49 48 46 45 37 34 30 27 27 20 10 7 18 19 24 26 28 28 31 31 32 29 27 22 22 29 24 20 24 31 36 36 37 39 39 38 38 39 40 41 41 41 41 40 41 41 40
50 50 50 49 49 49 49 48 47 43 35 30 26 20 19 20 19 14 17 21 27 26 27 31 29 29 31 28 28 24 26 23 14 17 20 27 31 34 35 36 37 36 38 39 40 41 40 39 38 39 40 40 40 40
49 49 49 48 48 48 48 45 44 38 32 28 20 13 15 23 18 23 22 22 27 30 33 29 30 29 25 25 26 21 16 12 19 21 26 28 31 32 33 34 35 35 36 37 38 38 38 37 37 37 39 39 39 40
49 47 43 47 47 45 43 40 38 37 32 25 21 17 24 23 20 25 27 19 28 32 31 31 24 20 18 20 15 19 18 18 24 25 28 29 30 33 34 35 36 35 35 36 36 37 38 37 37 37 39 38 38 39
47 37 46 47 43 44 42 36 35 29 25 19 20 28 27 26 25 24 30 27 33 31 21 17 13 14 19 12 13 23 22 25 27 28 29 30 32 34 35 34 35 35 35 34 34 35 37 38 38 37 36 39 39 41
38 39 46 45 42 40 36 34 31 26 22 24 26 27 27 27 27 28 29 32 32 27 23 19 20 12 12 12 18 22 24 27 27 28 29 31 32 33 36 33 34 34 34 34 34 36 36 36 36 36 38 38 39 40
39 38 46 44 39 34 28 27 30 17 21 28 30 29 29 28 29 31 31 32 33 30 26 15 14 15 20 25 26 26 26 27 29 30 31 33 33 33 34 34 34 32 33 33 34 35 36 37 37 38 37 38 38 40
46 46 45 44 40 31 22 19 26 19 21 28 30 28 28 27 28 29 29 31 28 25 19 13 19 26 25 27 28 30 30 30 29 29 31 32 34 34 34 34 34 33 33 34 34 39 36 35 37 38 38 39 39 39
42 41 43 39 33 31 25 25 21 24 27 28 29 28 26 28 27 28 28 30 25 19 21 24 20 24 30 30 31 32 32 31 31 31 32 31 33 34 34 34 33 32 32 33 33 34 38 35 37 38 38 39 39 40
37 41 35 37 25 25 27 30 24 27 26 26 27 27 26 25 26 27 28 27 25 27 26 26 28 29 30 31 33 34 36 36 35 34 38 36 32 32 32 33 33 32 33 33 34 34 34 35 36 37 37 37 40 41
40 35 29 22 19 16 22 27 20 25 16 16 24 20 19 23 27 29 25 27 28 31 32 31 32 33 32 33 34 35 35 35 33 33 34 33 33 33 32 33 33 32 31 34 35 35 35 39 38 37 38 40 40 40
38 21 16 15 13 20 16 15 20 19 22 17 14 14 19 20 27 22 23 25 29 29 29 30 31 29 29 30 29 32 34 35 33 33 33 31 30 32 33 33 34 34 34 35 35 35 35 35 38 35 36 39 39 38
23 18 16 15 18 12 13 14 16 17 10 18 10 10 17 24 17 18 21 24 25 27 28 29 29 29 28 28 31 33 36 35 33 33 34 34 33 32 33 34 34 35 36 34 34 34 33 33 34 34 37 38 37 38
16 17 15 16 16 18 19 12 16 20 20 12 18 22 23 20 15 17 24 26 27 28 29 29 29 29 28 30 31 32 34 35 34 32 33 34 33 32 32 32 30 32 35 34 34 36 34 33 35 37 36 37 38 37
13 13 23 29 27 26 21 24 25 20 18 15 16 16 14 14 14 24 27 28 29 30 31 32 31 30 30 31 34 34 33 33 33 34 35 34 35 35 34 32 32 33 34 34 33 33 34 36 36 36 36 36 37 37
23 25 22 25 25 26 19 15 17 19 22 23 22 17 14 18 22 27 26 29 30 31 31 32 33 33 32 32 32 32 32 32 34 35 34 33 34 35 36 36 35 39 36 35 36 39 38 37 36 36 36 35 36 38
24 25 23 14 21 23 22 24 23 26 27 25 23 20 24 27 29 28 29 34 36 34 29 29 30 31 31 31 31 30 30 30 29 28 29 29 30 32 34 34 34 34 34 36 39 40 39 38 38 37 37 37 38 38
20 24 19 17 13 16 24 26 25 26 25 26 27 27 27 26 26 28 28 28 29 30 32 32 30 29 28 27 28 29 30 30 30 28 26 26 28 31 32 33 34 35 37 37 37 37 39 38 38 37 37 36 36 36
22 22 20 21 16 22 24 26 27 27 25 23 23 26 27 27 27 27 26 26 27 27 29 29 28 28 28 27 27 27 30 32 31 31 32 32 32 31 33 34 36 37 36 35 35 35 35 35 35 35 34 34 35 35
22 22 22 17 18 23 25 25 25 25 25 24 25 23 26 26 27 28 26 25 26 25 30 28 26 27 28 28 28 32 35 31 30 31 31 33 35 36 36 37 37 37 35 34 35 35 35 34 34 34 33 33 34 34
23 24 23 22 19 23 27 24 24 24 25 25 25 27 28 27 25 28 28 29 27 25 26 25 26 28 29 31 30 31 33 31 33 37 38 38 39 38 38 37 37 36 36 35 35 35 34 34 33 33 33 33 34 34